Orbital Elements at Epoch 2459200.5 (2020-Dec-17.0) TDB
Reference: JPL 15 (heliocentric ecliptic J2000)
Element | Value | Uncertainty (1-sigma) | Units |
e | .02185636523542335 | 3.8544e-08 | |
a | 2.404928141751771 | 1.3747e-08 | au |
q | 2.352365153920696 | 9.1476e-08 | au |
i | 3.172590403745108 | 5.5967e-06 | deg |
node | 207.0550508440052 | 7.6268e-05 | deg |
peri | 274.0199143077125 | 0.00015195 | deg |
M | 195.7157338476552 | 0.00013142 | deg |
tp | 2459822.148735790585 (2022-Aug-30.64873579) | 0.0004978 | TDB |
period | 1362.233585272745 3.73 | 1.168e-05 3.198e-08 | d yr |
n | .2642718575521841 | 2.2659e-09 | deg/d |
Q | 2.457491129582846 | 1.4047e-08 | au |
|
| | Orbit Determination Parameters
Additional Information
|